This is the latest recevied weather packets stored in our database for station/object N3MFL. If no packets are shown the sender has not sent any weather packets the latest 10 day(s).
| Time | Temp. | Humidity | Pressure | Rain* | Wind** | Luminosity | Snow |
|---|---|---|---|---|---|---|---|
| 1777928672 | 19.44° C | 40% | 1009.7 hPa | 0 mm | - | 297 W/m² | - |
| 1777928369 | 20.56° C | 40% | 1009.4 hPa | 0 mm | - | 314 W/m² | - |
| 1777928067 | 20° C | 40% | 1009.3 hPa | 0 mm | - | 326 W/m² | - |
| 1777927765 | 20° C | 40% | 1009.4 hPa | 0 mm | - | 341 W/m² | - |
| 1777927463 | 19.44° C | 39% | 1009.5 hPa | 0 mm | - | 355 W/m² | - |
| 1777927162 | 20° C | 38% | 1009.3 hPa | 0 mm | - | 366 W/m² | - |
| 1777926859 | 20.56° C | 38% | 1009.4 hPa | 0 mm | - | 379 W/m² | - |
| 1777926555 | 20° C | 37% | 1009.3 hPa | 0 mm | - | 396 W/m² | - |
| 1777926252 | 20.56° C | 38% | 1009.4 hPa | 0 mm | - | 412 W/m² | - |
| 1777925948 | 20.56° C | 37% | 1009.5 hPa | 0 mm | - | 424 W/m² | - |
| 1777925646 | 20° C | 38% | 1009.5 hPa | 0 mm | - | 431 W/m² | - |
| 1777925343 | 20° C | 37% | 1009.3 hPa | 0 mm | - | 449 W/m² | - |
| 1777925040 | 20° C | 36% | 1009.4 hPa | 0 mm | - | 463 W/m² | - |
| 1777924737 | 20° C | 35% | 1009.5 hPa | 0 mm | - | 473 W/m² | - |
| 1777924432 | 20.56° C | 36% | 1009.3 hPa | 0 mm | - | 487 W/m² | - |
| 1777924129 | 20.56° C | 35% | 1009.3 hPa | 0 mm | - | 499 W/m² | - |
| 1777923825 | 20.56° C | 36% | 1009.5 hPa | 0 mm | - | 506 W/m² | - |
| 1777923521 | 20.56° C | 35% | 1009.6 hPa | 0 mm | - | 521 W/m² | - |
| 1777923218 | 20.56° C | 34% | 1009.2 hPa | 0 mm | - | 535 W/m² | - |
| 1777922917 | 20.56° C | 33% | 1009.6 hPa | 0 mm | - | 541 W/m² | - |
| 1777922614 | 21.11° C | 31% | 1009.4 hPa | 0 mm | - | 549 W/m² | - |
| 1777922313 | 21.67° C | 34% | 1009.2 hPa | 0 mm | - | 554 W/m² | - |
| 1777922010 | 20.56° C | 33% | 1009.3 hPa | 0 mm | - | 493 W/m² | - |
| 1777921705 | 20.56° C | 31% | 1009.4 hPa | 0 mm | - | 484 W/m² | - |
| 1777921402 | 20.56° C | 33% | 1009.5 hPa | 0 mm | - | 409 W/m² | - |
* Rain latest hour (hover to see other rain measurements)
** Current wind speed in m/s (hover to see current wind gust speed)